User: anonymous   Login
Location: *
(52.2090°N, 4.1550°W)
Time: 23:25:17
(UTC+00:00)
Language:

Cosmos 2237 - Orbit

View from above orbital plane
View from above orbital plane
View from above satellite
View from above satellite

Ground track
Ground track

The orbit data is extracted from the following two-line orbital elements,

1 22565U 93016A   19264.15397225 -.00000113  00000-0 -35076-4 0  9997
2 22565  70.8247 107.0328 0008026 297.0973  62.9328 14.12382139366115
Epoch (UTC): 21 September 2019 03:41:43
Eccentricity: 0.0008026
inclination: 70.8247°
perigee height: 845 km
apogee height: 857 km
right ascension of ascending node: 107.0328°
argument of perigee: 297.0973°
revolutions per day: 14.12382139
mean anomaly at epoch: 62.9328°
orbit number at epoch: 36611

The dashed part of the orbit path shows where the satellite is in the earth's shadow,  

DLR